This is the latest recevied weather packets stored in our database for station/object KB1YYC. If no packets are shown the sender has not sent any weather packets the latest 10 day(s).
| Time | Temp. | Humidity | Pressure | Rain* | Wind** | Luminosity | Snow |
|---|---|---|---|---|---|---|---|
| 1778089264 | 19.44° C | 71% | 1006.3 hPa | 0 mm | - | 171 W/m² | - |
| 1778088962 | 19.44° C | 71% | 1006.1 hPa | 0 mm | - | 173 W/m² | - |
| 1778088659 | 19.44° C | 72% | 1006.4 hPa | 0 mm | - | 212 W/m² | - |
| 1778088356 | 19.44° C | 72% | 1006.5 hPa | 0 mm | - | 228 W/m² | - |
| 1778088052 | 19.44° C | 72% | 1006.5 hPa | 0 mm | - | 222 W/m² | - |
| 1778087750 | 19.44° C | 72% | 1006.5 hPa | 0 mm | - | 238 W/m² | - |
| 1778087447 | 19.44° C | 71% | 1006.7 hPa | 0 mm | - | 193 W/m² | - |
| 1778087144 | 19.44° C | 72% | 1006.7 hPa | 0 mm | - | 265 W/m² | - |
| 1778086842 | 19.44° C | 72% | 1006.9 hPa | 0 mm | - | 202 W/m² | - |
| 1778086540 | 19.44° C | 72% | 1007.2 hPa | 0 mm | - | 228 W/m² | - |
| 1778086236 | 19.44° C | 72% | 1007.3 hPa | 0 mm | - | 237 W/m² | - |
| 1778085933 | 19.44° C | 72% | 1007.4 hPa | 0 mm | - | 221 W/m² | - |
| 1778085630 | 19.44° C | 72% | 1007.2 hPa | 0 mm | - | 211 W/m² | - |
| 1778085326 | 19.44° C | 72% | 1007.4 hPa | 0 mm | - | 232 W/m² | - |
| 1778085022 | 19.44° C | 72% | 1007.3 hPa | 0 mm | - | 196 W/m² | - |
| 1778084719 | 20° C | 70% | 1007.7 hPa | 0 mm | - | 192 W/m² | - |
| 1778084416 | 20° C | 71% | 1007.8 hPa | 0 mm | - | 181 W/m² | - |
| 1778084113 | 19.44° C | 72% | 1008 hPa | 0 mm | - | 172 W/m² | - |
| 1778083810 | 18.89° C | 72% | 1008 hPa | 0 mm | - | 144 W/m² | - |
| 1778083508 | 19.44° C | 72% | 1008.3 hPa | 0 mm | - | 182 W/m² | - |
| 1778083205 | 18.89° C | 72% | 1008.2 hPa | 0 mm | - | 209 W/m² | - |
| 1778082903 | 18.89° C | 73% | 1008.5 hPa | 0 mm | - | 194 W/m² | - |
| 1778081795 | 18.89° C | 74% | 1008.7 hPa | 0 mm | - | 97 W/m² | - |
| 1778081492 | 18.89° C | 72% | 1008.7 hPa | 0 mm | - | 105 W/m² | - |
| 1778081189 | 19.44° C | 71% | 1008.5 hPa | 0 mm | - | 201 W/m² | - |
* Rain latest hour (hover to see other rain measurements)
** Current wind speed in m/s (hover to see current wind gust speed)